FW2316 Weather Reports


Display with metric or nautical units.
time (UTC)temp
F
wind
direction
speed
MPH
gust
MPH
rain 1hr
in
rain 24hr
in
rain mn
in
humidity
%
barometer
mb
20260510224017 63 171 1.0 4.0 0.00 0.00 0.00 64 1021.2
20260510223518 63 84 0.0 2.0 0.00 0.00 0.00 65 1021.2
20260510223018 62 248 0.0 2.0 0.00 0.00 0.00 65 1021.2
20260510222519 62 12 0.0 2.0 0.00 0.00 0.00 65 1021.1
20260510222022 62 349 0.0 2.0 0.00 0.00 0.00 65 1021.1
20260510221517 62 226 0.0 5.0 0.00 0.00 0.00 67 1021.2
20260510221019 62 325 1.0 5.0 0.00 0.00 0.00 66 1021.1
20260510220517 62 26 0.0 2.0 0.00 0.00 0.00 66 1021.2
20260510220017 62 22 0.0 4.0 0.00 0.00 0.00 66 1021.1
20260510215516 62 213 0.0 4.0 0.00 0.00 0.00 67 1021.0
20260510215016 62 259 1.0 5.0 0.00 0.00 0.00 66 1021.0
20260510214017 62 290 1.0 7.0 0.00 0.00 0.00 66 1021.1
20260510213516 62 314 2.0 7.0 0.00 0.00 0.00 66 1021.0
20260510213035 62 225 2.0 10.0 0.00 0.00 0.00 69 1021.1
20260510212521 62 246 4.0 10.0 0.00 0.00 0.00 67 1021.2
20260510212020 63 265 4.0 10.0 0.00 0.00 0.00 65 1021.2
20260510211524 62 262 1.0 8.0 0.00 0.00 0.00 68 1021.2
20260510211016 61 284 4.0 9.0 0.00 0.00 0.00 70 1021.2
20260510210514 61 277 3.0 11.0 0.00 0.00 0.00 70 1021.1
20260510210033 62 285 5.0 11.0 0.00 0.00 0.00 69 1021.1
20260510205515 61 252 6.0 12.0 0.00 0.00 0.00 68 1021.0
20260510205013 61 263 4.0 12.0 0.00 0.00 0.00 68 1021.0
20260510204011 62 189 3.0 10.0 0.00 0.00 0.00 70 1020.8
20260510203510 61 228 4.0 10.0 0.00 0.00 0.00 71 1020.8
20260510203013 61 229 5.0 11.0 0.00 0.00 0.00 72 1020.6
20260510202509 61 250 7.0 11.0 0.00 0.00 0.00 71 1020.6
20260510202007 60 296 6.0 11.0 0.00 0.00 0.00 72 1020.5
20260510201508 60 182 3.0 8.0 0.00 0.00 0.00 73 1020.4
20260510201010 59 186 2.0 8.0 0.00 0.00 0.00 74 1020.5
20260510200508 60 223 3.0 8.0 0.00 0.00 0.00 72 1020.5
20260510200006 59 219 1.0 6.0 0.00 0.00 0.00 77 1020.5
20260510195505 58 205 3.0 6.0 0.00 0.00 0.00 79 1020.5
20260510195003 57 225 3.0 6.0 0.00 0.00 0.00 79 1020.4
20260510194007 56 162 3.0 7.0 0.00 0.00 0.00 81 1020.3
20260510193503 56 167 2.0 7.0 0.00 0.00 0.00 81 1020.3
20260510193006 56 163 2.0 9.0 0.00 0.00 0.00 82 1020.5
20260510192502 56 161 3.0 7.0 0.00 0.00 0.00 83 1020.6
20260510192002 56 164 3.0 7.0 0.00 0.00 0.00 84 1020.4
20260510191600 55 178 2.0 5.0 0.00 0.00 0.00 85 1020.4
20260510191103 55 182 1.0 6.0 0.00 0.00 0.00 85 1020.5
20260510190559 55 182 2.0 6.0 0.00 0.00 0.00 85 1020.4
20260510190100 55 185 0.0 5.0 0.00 0.00 0.00 85 1020.6
20260510185606 55 183 3.0 5.0 0.00 0.00 0.00 85 1020.7
20260510185529 55 184 3.0 5.0 0.00 0.00 0.00 85 1020.7
20260510185059 56 185 0.0 6.0 0.00 0.00 0.00 86 1020.6
20260510184059 55 200 0.0 4.0 0.00 0.00 0.00 84 1020.5
20260510183559 55 201 0.0 4.0 0.00 0.00 0.00 85 1020.4
20260510183103 55 201 1.0 4.0 0.00 0.00 0.00 86 1020.3
20260510182555 55 206 0.0 4.0 0.00 0.00 0.00 87 1020.1
20260510182054 54 221 0.0 4.0 0.00 0.00 0.00 87 1020.2
20260510181620 53 232 0.0 4.0 0.00 0.00 0.00 87 1020.0
20260510181053 53 232 0.0 5.0 0.00 0.00 0.00 87 1020.2
20260510180553 53 254 0.0 4.0 0.00 0.00 0.00 87 1020.3
20260510180103 53 255 1.0 5.0 0.00 0.00 0.00 87 1020.3
20260510175551 53 253 1.0 4.0 0.00 0.00 0.00 88 1020.1
20260510175053 53 252 0.0 5.0 0.00 0.00 0.00 88 1020.1
20260510174049 53 253 3.0 11.0 0.00 0.00 0.00 87 1020.1
20260510173551 53 254 5.0 11.0 0.00 0.00 0.00 87 1020.1
20260510173051 53 281 4.0 9.0 0.00 0.00 0.00 87 1020.1
20260510172549 53 261 3.0 7.0 0.00 0.00 0.00 88 1019.9
20260510172047 53 240 2.0 7.0 0.00 0.00 0.00 88 1019.8
20260510171547 53 238 3.0 7.0 0.00 0.00 0.00 88 1019.8
20260510171048 53 234 0.0 5.0 0.00 0.00 0.00 88 1019.7
20260510170546 53 232 1.0 5.0 0.00 0.00 0.00 88 1019.7
20260510170045 53 231 2.0 5.0 0.00 0.00 0.00 88 1019.7
20260510165547 53 232 0.0 5.0 0.00 0.00 0.00 88 1019.5
20260510165044 53 234 2.0 5.0 0.00 0.00 0.00 88 1019.4
20260510164044 53 234 0.0 3.0 0.00 0.00 0.00 89 1019.0
20260510163544 53 234 0.0 4.0 0.00 0.00 0.00 90 1019.1
20260510163048 53 234 2.0 8.0 0.00 0.00 0.00 90 1019.1
20260510162545 53 237 2.0 8.0 0.00 0.00 0.00 90 1019.3
20260510162043 53 225 4.0 10.0 0.00 0.00 0.00 90 1019.3
20260510161541 53 212 5.0 10.0 0.00 0.00 0.00 89 1019.3
20260510161042 53 240 1.0 8.0 0.00 0.00 0.00 90 1019.3
20260510160541 53 242 4.0 8.0 0.00 0.00 0.00 90 1019.2
20260510160042 53 245 1.0 9.0 0.00 0.00 0.00 90 1019.0
20260510155539 53 242 4.0 9.0 0.00 0.00 0.00 90 1018.7
20260510155039 53 246 3.0 8.0 0.00 0.00 0.00 91 1018.6
20260510154043 53 217 2.0 5.0 0.00 0.00 0.00 91 1018.5
20260510153539 53 215 1.0 4.0 0.00 0.00 0.00 91 1018.5
20260510153044 53 214 0.0 4.0 0.00 0.00 0.00 92 1018.5
20260510152543 53 213 2.0 4.0 0.00 0.00 0.00 92 1018.5
20260510152041 53 213 0.0 1.0 0.00 0.00 0.00 92 1018.2
20260510151546 53 213 0.0 4.0 0.00 0.00 0.00 92 1018.4
20260510151039 53 213 1.0 5.0 0.00 0.00 0.00 92 1018.8
20260510150639 53 213 3.0 5.0 0.00 0.00 0.00 92 1018.9
20260510150038 53 240 2.0 4.0 0.00 0.00 0.00 93 1019.2
20260510145537 53 247 0.0 3.0 0.00 0.00 0.00 92 1018.9
20260510145039 53 247 0.0 4.0 0.00 0.00 0.00 92 1018.8
20260510144036 52 247 1.0 5.0 0.00 0.00 0.00 92 1018.6
20260510143533 52 247 2.0 5.0 0.00 0.00 0.00 92 1018.7
20260510143034 52 247 0.0 0.0 0.00 0.00 0.00 92 1018.5
20260510142535 52 247 0.0 0.0 0.00 0.00 0.00 92 1018.5
20260510142032 51 247 0.0 0.0 0.00 0.00 0.00 93 1018.5
20260510141536 51 247 0.0 0.0 0.00 0.00 0.00 93 1018.3
20260510141032 51 247 0.0 0.0 0.00 0.00 0.00 93 1018.0
20260510140531 51 247 0.0 0.0 0.00 0.00 0.00 93 1017.8
20260510140029 51 247 0.0 0.0 0.00 0.00 0.00 94 1017.6
20260510135529 50 247 0.0 0.0 0.00 0.00 0.00 94 1017.7
20260510135028 50 247 0.0 0.0 0.00 0.00 0.00 94 1018.1
20260510134027 50 247 0.0 0.0 0.00 0.00 0.00 94 1018.0
20260510133526 50 247 0.0 0.0 0.00 0.00 0.00 94 1018.3
20260510133026 50 247 0.0 0.0 0.00 0.00 0.00 94 1018.5
20260510132526 50 247 0.0 0.0 0.00 0.00 0.00 94 1018.9
20260510132025 49 247 0.0 0.0 0.00 0.00 0.00 94 1018.7
20260510131523 49 247 0.0 0.0 0.00 0.00 0.00 94 1018.6
20260510131027 49 247 0.0 0.0 0.00 0.00 0.00 94 1018.7
20260510130523 49 247 0.0 0.0 0.00 0.00 0.00 94 1018.6
20260510130021 49 247 0.0 0.0 0.00 0.00 0.00 94 1018.6
20260510125520 49 247 0.0 0.0 0.00 0.00 0.00 94 1018.7
20260510125020 49 247 0.0 0.0 0.00 0.00 0.00 94 1018.6
20260510124021 49 247 0.0 0.0 0.00 0.00 0.00 94 1018.5
20260510123521 49 247 0.0 0.0 0.00 0.00 0.00 94 1018.6
20260510123021 49 247 0.0 0.0 0.00 0.00 0.00 93 1018.3
20260510122521 50 247 0.0 0.0 0.00 0.00 0.00 94 1018.3
20260510122022 50 247 0.0 0.0 0.00 0.00 0.00 94 1018.3
20260510121520 50 247 0.0 0.0 0.00 0.00 0.00 94 1018.5
20260510121019 50 247 0.0 0.0 0.00 0.00 0.00 94 1018.3
20260510120520 50 247 0.0 0.0 0.00 0.00 0.00 93 1018.2
20260510120018 50 247 0.0 0.0 0.00 0.00 0.00 94 1018.3
20260510115518 50 247 0.0 0.0 0.00 0.00 0.00 93 1018.4
20260510115017 50 247 0.0 0.0 0.00 0.00 0.00 93 1018.3
20260510114016 50 247 0.0 0.0 0.00 0.00 0.00 93 1018.4
20260510113515 50 247 0.0 0.0 0.00 0.00 0.00 93 1018.9
20260510113014 50 249 0.0 2.0 0.00 0.00 0.00 93 1018.8
20260510112514 50 250 0.0 3.0 0.00 0.00 0.00 93 1018.7
20260510112015 50 253 1.0 3.0 0.00 0.00 0.00 93 1018.7
20260510111516 50 254 1.0 3.0 0.00 0.00 0.00 93 1018.6
20260510111010 50 254 0.0 3.0 0.00 0.00 0.00 93 1018.5
20260510110514 50 254 1.0 3.0 0.00 0.00 0.00 92 1018.4
20260510110011 51 254 0.0 2.0 0.00 0.00 0.00 92 1018.2
20260510105508 51 254 0.0 2.0 0.00 0.00 0.00 92 1018.1
20260510105007 51 254 0.0 4.0 0.00 0.00 0.00 91 1018.1
20260510104010 52 257 1.0 3.0 0.00 0.00 0.00 92 1018.0
20260510103507 52 257 2.0 6.0 0.00 0.00 0.00 92 1017.9
20260510103004 52 258 1.0 6.0 0.00 0.00 0.00 93 1017.9
20260510102503 51 268 1.0 4.0 0.00 0.00 0.00 93 1018.0
20260510102001 51 270 2.0 3.0 0.00 0.00 0.00 93 1017.9
20260510101501 51 270 0.0 0.0 0.00 0.00 0.00 93 1017.9
20260510101001 51 270 0.0 0.0 0.00 0.00 0.00 92 1017.8
20260510100603 51 270 0.0 1.0 0.00 0.00 0.00 92 1017.8
20260510100133 51 270 0.0 1.0 0.00 0.00 0.00 93 1017.7
20260510095605 51 270 0.0 1.0 0.00 0.00 0.00 92 1017.6
20260510095058 51 270 0.0 0.0 0.00 0.00 0.00 92 1017.4
20260510094059 51 270 0.0 0.0 0.00 0.00 0.00 92 1017.4
20260510093557 51 270 0.0 1.0 0.00 0.00 0.00 92 1017.4
20260510093100 51 270 0.0 1.0 0.00 0.00 0.00 91 1017.3
20260510092554 51 270 0.0 0.0 0.00 0.00 0.00 91 1017.3
20260510092057 51 270 0.0 0.0 0.00 0.00 0.00 91 1017.3
20260510091557 51 270 0.0 0.0 0.00 0.00 0.00 91 1017.2
20260510091054 51 270 0.0 0.0 0.00 0.00 0.00 91 1017.3
20260510090554 51 270 0.0 0.0 0.00 0.00 0.00 91 1017.2
20260510090054 51 270 0.0 0.0 0.00 0.00 0.00 91 1017.2
20260510085557 51 270 0.0 0.0 0.00 0.00 0.00 90 1017.2
20260510085054 52 270 0.0 0.0 0.00 0.00 0.00 90 1017.1
20260510084657 51 70 0.0 0.0 0.00 0.00 0.00 89 1016.9
20260510084054 51 70 0.0 0.0 0.00 0.00 0.00 89 1016.9
20260510083554 51 70 0.0 0.0 0.00 0.00 0.00 89 1016.9
20260510083101 52 70 0.0 0.0 0.00 0.00 0.00 89 1017.0
20260510082553 52 69 0.0 0.0 0.00 0.00 0.00 89 1017.0
20260510082054 52 70 0.0 0.0 0.00 0.00 0.00 89 1017.0
20260510081555 52 70 0.0 0.0 0.00 0.00 0.00 89 1017.0
20260510081053 52 70 0.0 0.0 0.00 0.00 0.00 88 1017.0
20260510080553 52 70 0.0 0.0 0.00 0.00 0.00 88 1017.1
20260510080055 53 70 0.0 0.0 0.00 0.00 0.00 88 1017.1
20260510075553 53 69 0.0 0.0 0.00 0.00 0.00 87 1017.2
20260510075053 53 70 0.0 0.0 0.00 0.00 0.00 86 1017.2
20260510074653 54 70 0.0 0.0 0.00 0.00 0.00 86 1017.2
20260510074055 54 70 0.0 0.0 0.00 0.00 0.00 86 1017.2
20260510073556 54 70 0.0 0.0 0.00 0.00 0.00 86 1017.1
20260510073054 54 70 0.0 1.0 0.00 0.00 0.00 86 1017.2
20260510072554 54 70 0.0 0.0 0.00 0.00 0.00 86 1017.2
20260510072054 55 70 0.0 1.0 0.00 0.00 0.00 85 1017.2
20260510071559 55 69 0.0 1.0 0.00 0.00 0.00 86 1017.1
20260510071052 54 70 0.0 0.0 0.00 0.00 0.00 87 1017.2
20260510070552 54 70 0.0 0.0 0.00 0.00 0.00 87 1017.3
20260510070053 54 69 0.0 0.0 0.00 0.00 0.00 86 1017.3
20260510065553 54 70 0.0 0.0 0.00 0.00 0.00 85 1017.3
20260510065153 54 69 0.0 0.0 0.00 0.00 0.00 84 1017.4
20260510064652 55 70 0.0 0.0 0.00 0.00 0.00 84 1017.4
20260510064052 55 70 0.0 0.0 0.00 0.00 0.00 84 1017.4
20260510063552 55 70 0.0 1.0 0.00 0.00 0.00 84 1017.4
20260510063053 55 70 0.0 1.0 0.00 0.00 0.00 85 1017.5
20260510062651 54 70 0.0 1.0 0.00 0.00 0.00 85 1017.5
20260510062055 54 180 0.0 1.0 0.00 0.00 0.00 85 1017.4
20260510061554 54 180 0.0 0.0 0.00 0.00 0.00 85 1017.4
20260510061051 54 180 0.0 0.0 0.00 0.00 0.00 84 1017.4
20260510060551 55 181 0.0 0.0 0.00 0.00 0.00 84 1017.4
20260510060051 55 181 0.0 0.0 0.00 0.00 0.00 84 1017.3
20260510055550 55 181 0.0 0.0 0.00 0.00 0.00 83 1017.4
20260510055050 55 180 0.0 0.0 0.00 0.00 0.00 83 1017.4
20260510054051 56 270 0.0 0.0 0.00 0.00 0.00 83 1017.5
20260510053550 56 270 0.0 0.0 0.00 0.00 0.00 83 1017.5
20260510053051 56 270 0.0 0.0 0.00 0.00 0.00 82 1017.4
20260510052553 57 270 0.0 0.0 0.00 0.00 0.00 82 1017.4
20260510052054 57 270 0.0 0.0 0.00 0.00 0.00 81 1017.5
20260510051551 57 270 0.0 3.0 0.00 0.00 0.00 80 1017.6
20260510051049 57 270 0.0 3.0 0.00 0.00 0.00 80 1017.6
20260510050550 58 270 1.0 3.0 0.00 0.00 0.00 79 1017.5
20260510050050 58 274 0.0 3.0 0.00 0.00 0.00 79 1017.5
20260510045552 58 275 0.0 3.0 0.00 0.00 0.00 79 1017.4
20260510045051 58 275 0.0 3.0 0.00 0.00 0.00 78 1017.4
20260510044649 59 281 1.0 3.0 0.00 0.00 0.00 77 1017.4
20260510044029 59 281 1.0 3.0 0.00 0.00 0.00 77 1017.4
20260510043530 59 283 1.0 3.0 0.00 0.00 0.00 77 1017.3
20260510043027 59 283 0.0 2.0 0.00 0.00 0.00 77 1017.3
20260510042527 59 283 1.0 2.0 0.00 0.00 0.00 75 1017.2
20260510042029 60 283 0.0 0.0 0.00 0.00 0.00 74 1017.1
20260510041526 61 283 0.0 0.0 0.00 0.00 0.00 73 1017.1
20260510040508 61 283 0.0 0.0 0.00 0.00 0.00 72 1016.9
20260510040007 61 283 0.0 0.0 0.00 0.00 0.00 71 1016.9
20260510035507 61 283 0.0 1.0 0.00 0.00 0.00 71 1016.9
20260510035007 61 283 0.0 1.0 0.00 0.00 0.00 72 1016.8
20260510034507 62 283 0.0 1.0 0.00 0.00 0.00 70 1017.0
20260510034007 62 283 0.0 0.0 0.00 0.00 0.00 70 1017.0
20260510033530 62 283 0.0 0.0 0.00 0.00 0.00 69 1017.1
20260510033029 63 283 0.0 0.0 0.00 0.00 0.00 67 1017.2
20260510032529 63 283 0.0 0.0 0.00 0.00 0.00 66 1017.1
20260510032029 63 283 0.0 0.0 0.00 0.00 0.00 66 1017.2
20260510031541 64 283 0.0 0.0 0.00 0.00 0.00 65 1017.3
20260510031028 64 283 0.0 0.0 0.00 0.00 0.00 66 1017.3
20260510030528 64 283 0.0 1.0 0.00 0.00 0.00 65 1017.4
20260510030028 64 283 0.0 1.0 0.00 0.00 0.00 64 1017.3
20260510025527 65 283 0.0 3.0 0.00 0.00 0.00 63 1017.5
20260510025027 65 283 2.0 3.0 0.00 0.00 0.00 62 1017.5
20260510024536 65 283 0.0 3.0 0.00 0.00 0.00 62 1017.6
20260510024127 65 283 0.0 3.0 0.00 0.00 0.00 61 1017.6
20260510023515 65 283 1.0 3.0 0.00 0.00 0.00 60 1017.5
20260510023015 66 283 1.0 3.0 0.00 0.00 0.00 61 1017.7
20260510022616 66 283 1.0 4.0 0.00 0.00 0.00 60 1017.6
20260510022014 66 283 1.0 4.0 0.00 0.00 0.00 60 1017.6
20260510021516 66 283 1.0 5.0 0.00 0.00 0.00 60 1017.7
20260510021013 66 283 3.0 5.0 0.00 0.00 0.00 59 1017.7
20260510020514 66 281 3.0 5.0 0.00 0.00 0.00 59 1017.8
20260510020012 66 288 2.0 7.0 0.00 0.00 0.00 60 1017.8
20260510015512 67 292 4.0 9.0 0.00 0.00 0.00 59 1018.0
20260510015011 67 296 5.0 9.0 0.00 0.00 0.00 59 1018.0
20260510014511 67 269 4.0 7.0 0.00 0.00 0.00 59 1018.0
20260510014112 67 273 4.0 8.0 0.00 0.00 0.00 58 1018.2
20260510013512 67 280 3.0 8.0 0.00 0.00 0.00 58 1018.2
20260510013011 68 295 5.0 8.0 0.00 0.00 0.00 58 1018.1
20260510012511 68 286 3.0 5.0 0.00 0.00 0.00 58 1018.1
20260510012011 68 285 3.0 8.0 0.00 0.00 0.00 58 1018.1
20260510011511 67 255 3.0 8.0 0.00 0.00 0.00 59 1018.2
20260510011011 67 292 2.0 7.0 0.00 0.00 0.00 58 1018.2
20260510010510 68 278 3.0 7.0 0.00 0.00 0.00 58 1018.2
20260510010009 68 280 3.0 7.0 0.00 0.00 0.00 58 1018.3
20260510005510 68 269 2.0 7.0 0.00 0.00 0.00 60 1018.4
20260510005010 67 269 3.0 9.0 0.00 0.00 0.00 59 1018.6
20260510004510 68 288 5.0 9.0 0.00 0.00 0.00 59 1018.6
20260510004107 69 302 4.0 8.0 0.00 0.00 0.00 58 1018.6
20260510003508 69 294 4.0 8.0 0.00 0.00 0.00 58 1018.7
20260510003021 69 296 3.0 8.0 0.00 0.00 0.00 57 1018.6
20260510002511 68 292 4.0 10.0 0.00 0.00 0.00 59 1018.6
20260510002008 69 294 5.0 10.0 0.00 0.00 0.00 58 1018.8
20260510001513 68 275 2.0 8.0 0.00 0.00 0.00 59 1018.8
20260510001007 68 282 3.0 9.0 0.00 0.00 0.00 59 1018.6
20260510000507 68 294 3.0 9.0 0.00 0.00 0.00 59 1018.8
20260510000005 68 291 4.0 8.0 0.00 0.00 0.00 59 1019.0
20260509235505 68 261 4.0 8.0 0.00 0.00 0.00 60 1018.9
20260509235004 68 255 3.0 8.0 0.00 0.00 0.00 60 1019.0
20260509234513 68 323 3.0 9.0 0.00 0.00 0.00 59 1019.0
20260509234106 69 302 4.0 8.0 0.00 0.00 0.00 58 1019.1
20260509233503 69 247 3.0 8.0 0.00 0.00 0.00 59 1019.1
20260509233002 68 269 1.0 8.0 0.00 0.00 0.00 60 1019.1
20260509232504 69 275 5.0 9.0 0.00 0.00 0.00 60 1019.2
20260509232100 68 331 3.0 10.0 0.00 0.00 0.00 59 1019.2
20260509231600 69 286 7.0 10.0 0.00 0.00 0.00 59 1019.2
20260509231059 69 315 2.0 8.0 0.00 0.00 0.00 59 1019.3
20260509230559 69 325 4.0 10.0 0.00 0.00 0.00 60 1019.4
20260509230106 69 304 3.0 11.0 0.00 0.00 0.00 60 1019.5
20260509225557 69 300 6.0 11.0 0.00 0.00 0.00 60 1019.7
20260509225056 68 289 4.0 9.0 0.00 0.00 0.00 61 1019.7